sat.trackr.live / text

‹ back to catalog

SITRO-AIS 7 (FARTUSHNIY)

NORAD 57194 · 2023-091AE

PAYLOAD ACTIVE UNKNOWN

§ Identity

Operator
Country
CIS
Launch date
2023-06-27
Launch site
VOSTO
Launch vehicle
Mass (kg)
RCS (m²)

Purposes: tech_demo

External: N2YO · Heavens-Above · Gunter

§ Orbital elements

Epoch: 2026-05-25T03:47:03.058656Z

Period
94.42 min
Inclination
97.5077°
Eccentricity
0.0011826
Mean motion
15.25120788 rev/d
Perigee alt
482.3 km
Apogee alt
498.5 km
Semi-major
6,868.6 km
B*
3.4763e-4
RAAN
207.9230°
Arg perigee
180.3400°
Mean anomaly
179.7832°
Rev number
16,076

§ Raw data

SITRO-AIS 7 (FARTUSHNIY)1 57194U 23091AE  26145.15767429  .00008651  00000+0  34763-3 0  99952 57194  97.5077 207.9230 0011826 180.3400 179.7832 15.25120788160766

JSON: /api/v1/satellites/57194 · /tle

For live sub-satellite position, see the globe view (requires WebGL).

§ Visibility from observer

Set your observer location to see the next 7 days of passes ≥ 10°. The values pass through the URL so the page stays shareable.

No JS? Fill the form by hand. The geolocation button needs JavaScript.

§ Radio — SatNOGS DB

ModeDescriptionDownlinkUplink
GMSK USP Mode U - GMSK USP 2K4 TLM 401.200 MHz

1 transmitter · refreshed weekly from db.satnogs.org